Total_Precipitation_Accumulation
2.21 2.43 2.84 3.11 3.30 3.44 3.67 3.94 4.33 4.72 4.85 4.69 4.64 4.66 4.53 4.35 3.98 3.83 3.97 3.99 3.76 3.79 4.22 3.93 4.38 4.39 4.58 4.70 4.63 4.86 4.73 4.46 4.53 4.51 3.93 3.25 2.79 2.70 2.51 2.50 2.73 2.66 2.66
2.25 2.50 2.84 3.03 3.01 3.18 3.46 3.86 4.32 4.66 4.59 4.73 4.97 4.99 4.86 4.31 4.00 3.87 3.89 3.76 3.57 3.47 3.60 4.21 4.20 4.31 4.53 4.58 4.53 4.58 4.31 4.00 4.37 4.72 4.58 3.78 3.27 2.77 2.23 2.46 2.50 2.62 2.91
1.92 2.09 2.30 2.52 2.74 3.15 3.58 3.93 4.26 4.40 4.43 4.69 4.87 4.62 4.49 4.08 4.00 3.98 3.88 3.67 3.55 3.47 3.61 3.94 4.07 4.18 4.08 4.32 4.53 4.32 4.23 4.12 4.16 4.40 4.71 4.24 3.55 2.94 2.52 2.36 2.41 2.77 3.04
1.77 1.91 1.98 2.32 2.71 3.12 3.71 4.15 4.18 4.26 4.15 4.33 4.50 4.37 4.06 3.84 3.74 3.73 3.54 3.44 3.33 3.25 3.38 3.60 3.83 3.99 3.89 4.09 3.93 4.02 4.19 4.25 4.04 4.11 4.02 3.98 3.73 3.55 3.07 2.59 2.46 2.70 2.79
1.69 1.93 1.90 2.12 2.41 2.83 3.25 3.69 4.05 4.13 3.97 3.95 4.07 4.22 4.03 3.74 3.51 3.37 3.34 3.32 3.32 3.13 3.11 3.35 3.55 3.68 3.57 3.59 3.81 4.16 4.08 4.01 3.89 3.99 4.00 4.14 3.97 3.65 3.49 3.08 2.80 2.64 2.36
1.69 1.85 2.13 2.20 2.36 2.62 2.99 3.29 3.52 3.52 3.48 3.47 3.53 3.65 3.70 3.66 3.42 3.23 3.29 3.30 3.19 3.07 3.02 3.12 3.42 3.48 3.42 3.40 3.55 3.66 3.70 3.73 3.84 3.82 3.71 3.94 4.00 3.84 3.88 3.46 3.06 2.74 2.23
1.84 1.87 2.07 2.21 2.30 2.41 2.60 2.76 2.84 2.89 2.88 2.92 2.92 2.92 3.04 3.13 3.04 2.98 3.05 3.10 3.03 2.95 2.93 2.93 3.09 3.03 3.02 3.13 3.38 3.41 3.35 3.37 3.47 3.43 3.46 3.47 3.39 3.53 3.70 3.63 3.16 2.78 2.23
1.66 1.75 1.84 1.80 1.81 1.86 2.01 2.16 2.25 2.28 2.26 2.36 2.48 2.49 2.68 2.72 2.76 2.90 2.77 2.82 2.79 2.81 2.78 2.69 2.64 2.58 2.61 2.69 3.08 3.16 3.09 3.17 3.20 3.09 3.39 3.24 3.05 3.27 3.30 3.38 3.53 3.24 2.82
1.35 1.37 1.39 1.46 1.57 1.61 1.69 1.81 1.91 1.94 1.88 1.96 2.14 2.19 2.26 2.42 2.55 2.65 2.52 2.40 2.46 2.39 2.53 2.47 2.34 2.30 2.41 2.57 2.73 2.77 2.77 2.91 2.88 2.92 3.01 2.82 2.79 2.88 2.91 3.11 3.41 3.52 3.28
1.18 1.22 1.19 1.24 1.28 1.34 1.46 1.63 1.73 1.89 1.90 1.87 1.93 1.89 2.00 2.13 2.31 2.39 2.25 2.26 2.38 2.35 2.32 2.28 2.19 2.18 2.22 2.30 2.49 2.47 2.57 2.58 2.57 2.69 2.74 2.71 2.66 2.80 2.74 2.79 3.04 3.30 3.38
0.97 1.06 1.00 1.02 1.10 1.17 1.29 1.46 1.73 1.91 1.87 1.72 1.78 1.88 1.86 1.95 2.05 2.10 2.01 2.12 2.24 2.39 2.37 2.34 2.30 2.15 2.08 2.17 2.27 2.14 2.29 2.28 2.30 2.29 2.37 2.41 2.59 2.72 2.67 2.72 2.79 3.07 3.39
0.77 0.88 0.93 0.88 0.93 1.00 1.12 1.31 1.53 1.71 1.76 1.70 1.72 1.85 1.93 1.89 1.86 1.83 1.85 1.92 1.96 2.04 2.07 2.04 2.04 2.03 2.13 2.24 2.16 2.10 2.13 2.21 2.18 2.26 2.41 2.31 2.48 2.63 2.55 2.67 2.69 2.87 3.25
0.86 0.82 0.92 0.95 0.93 0.95 1.08 1.27 1.32 1.53 1.75 1.76 1.75 1.88 1.82 1.75 1.80 1.94 2.00 1.97 1.97 2.00 1.97 1.97 1.96 2.00 2.18 2.30 2.25 2.24 2.29 2.31 2.20 2.30 2.34 2.22 2.36 2.42 2.44 2.50 2.57 2.76 2.97
0.93 0.86 0.86 0.86 0.79 0.85 1.00 1.16 1.26 1.40 1.59 1.75 1.83 1.93 1.90 1.90 1.99 2.11 2.20 2.16 2.06 2.06 2.12 2.11 2.06 2.09 2.02 2.05 2.19 2.33 2.34 2.31 2.21 2.20 2.12 2.01 2.01 2.10 2.29 2.30 2.43 2.65 2.84
0.84 0.86 0.80 0.72 0.70 0.73 0.84 1.03 1.22 1.37 1.51 1.76 1.89 1.99 2.05 2.04 2.07 2.09 2.19 2.18 2.06 2.02 2.23 2.24 2.20 2.18 2.04 1.91 2.02 2.14 2.08 2.12 2.07 2.02 1.85 1.66 1.72 1.83 1.91 1.84 2.19 2.52 2.64
0.81 0.74 0.75 0.77 0.77 0.72 0.74 0.83 1.01 1.21 1.38 1.62 1.79 1.86 1.97 2.09 2.08 2.06 2.12 2.13 2.16 2.20 2.22 2.16 2.16 2.05 1.75 1.81 1.75 1.72 1.77 1.85 1.86 1.89 1.86 1.71 1.61 1.56 1.60 1.57 1.74 2.06 2.22
1.03 1.03 0.94 0.94 0.86 0.85 0.89 0.90 0.93 1.11 1.33 1.51 1.66 1.79 1.91 2.00 2.04 1.99 2.09 2.20 2.18 2.11 2.00 1.94 1.94 1.89 1.80 1.65 1.43 1.38 1.51 1.70 1.78 1.82 1.85 1.60 1.48 1.55 1.43 1.51 1.57 1.61 1.71
0.82 0.98 1.04 1.05 1.02 0.96 1.04 1.06 1.08 1.20 1.39 1.59 1.71 1.79 1.92 1.97 1.99 1.97 1.95 1.97 1.96 1.94 1.95 1.85 1.83 1.91 1.80 1.69 1.44 1.33 1.30 1.49 1.55 1.54 1.58 1.62 1.60 1.51 1.55 1.53 1.52 1.43 1.46
0.84 0.92 0.99 1.07 1.20 1.23 1.25 1.28 1.40 1.49 1.50 1.60 1.75 1.87 1.97 1.99 1.97 1.99 1.94 1.96 1.96 1.90 1.90 1.88 1.90 1.89 1.82 1.75 1.53 1.43 1.40 1.51 1.53 1.56 1.58 1.66 1.71 1.72 1.58 1.53 1.56 1.56 1.57
0.82 0.91 0.99 1.03 1.18 1.33 1.39 1.42 1.52 1.63 1.59 1.64 1.74 1.86 1.96 2.08 2.04 2.12 2.16 2.11 2.01 1.92 1.91 1.94 1.90 1.80 1.76 1.65 1.47 1.44 1.44 1.63 1.74 1.85 1.84 1.75 1.62 1.62 1.51 1.48 1.57 1.55 1.55
0.91 0.85 0.95 1.20 1.29 1.38 1.51 1.57 1.54 1.56 1.58 1.71 1.81 1.92 2.01 2.07 2.06 2.12 2.16 2.15 2.08 2.05 1.94 1.82 1.84 1.83 1.73 1.54 1.28 1.24 1.28 1.53 1.77 1.82 1.77 1.65 1.49 1.35 1.31 1.28 1.38 1.47 1.41
1.13 1.13 1.20 1.31 1.37 1.42 1.59 1.72 1.74 1.67 1.77 1.86 1.84 1.92 2.04 1.88 1.87 2.09 2.17 2.20 2.22 2.18 2.05 1.93 1.85 1.87 1.80 1.52 1.33 1.27 1.27 1.43 1.68 1.88 1.85 1.70 1.51 1.32 1.23 1.09 1.14 1.20 1.14
1.11 1.14 1.23 1.28 1.35 1.44 1.58 1.81 1.86 1.78 1.77 1.85 1.90 1.91 1.95 2.05 2.11 2.17 2.23 2.21 2.17 2.14 2.11 2.06 1.95 1.92 1.95 1.87 1.60 1.45 1.40 1.48 1.56 1.71 1.88 1.76 1.46 1.23 1.13 1.09 1.01 0.91 0.91
0.99 1.05 1.18 1.21 1.36 1.51 1.68 1.92 1.96 1.89 1.91 1.98 2.07 2.04 2.00 2.03 2.19 2.36 2.36 2.29 2.15 2.19 2.23 2.12 2.10 2.11 2.14 2.03 1.80 1.63 1.52 1.54 1.53 1.53 1.55 1.50 1.35 1.17 1.18 1.20 1.06 0.94 1.01
1.06 1.17 1.33 1.45 1.52 1.59 1.64 1.80 1.96 2.06 2.15 2.17 2.15 2.16 2.18 2.21 2.29 2.29 2.28 2.28 2.22 2.17 2.21 2.19 2.16 2.15 2.09 1.97 1.85 1.73 1.66 1.64 1.58 1.49 1.50 1.46 1.45 1.32 1.27 1.32 1.31 1.27 1.31
1.43 1.41 1.41 1.54 1.61 1.61 1.67 1.78 2.00 2.27 2.47 2.43 2.32 2.32 2.31 2.33 2.31 2.34 2.19 2.04 1.95 1.90 1.81 1.83 1.82 1.75 1.73 1.68 1.59 1.57 1.55 1.51 1.50 1.39 1.47 1.57 1.56 1.52 1.51 1.50 1.48 1.47 1.44